Location: D�derode
(51.8092°N, 10.1065°E)
Time: 06:37:55
(UTC+00:00)

Meteor 1-11 Rocket - Pass Details

Date: 01 December 2020
Orbit: 832 x 915 km, 81.2° (Epoch: 23 January)

Event Time Altitude Azimuth Distance (km) Brightness Sun altitude
Rises 17:31:35 0° 348° (NNW) 3,467 6.9 -20.5°
Reaches altitude 10° 17:34:03 10° 352° (N) 2,538 6.2 -20.9°
Maximum altitude 17:39:47 62° 73° (ENE) 998 3.7 -21.8°
Drops below altitude 10° 17:45:36 10° 154° (SSE) 2,574 6.0 -22.7°
Sets 17:48:06 0° 158° (SSE) 3,520 6.8 -23.0°
